SCP
0 0 0 0 -0 -0 -0 -0 0 -0 0 -0 0 -0 0 0 0 0 0 0 0 0 0 0 0 0 0 0 0 0 0 0 0 0 0 0 0 0 0 0 0 0 0 0
0 0 0 0 0 0 0 0 0 0 -0 0 0 0 0 0 0 0 0 0 0 0 -0 0 0 0 0 0 0 0 0 0 0 0 0 0 0 0 0 0 0 0 0 0
0 0 0 -0 -0 0 0 0 0 0 0 0 0 0 0 -0 0 -0 -0 -0 0 0 0 0 0 0 0 0 0 0 0 0 0 0 0 0 0 0 0 0 0 0 0 0
0 0 -0 -0 -0 -0 0 0 0 0 0 0 -0 -0 0 -0 0 0 0 0 0 0 0 0 0 0 0 0 0 0 0 0 0 0 0 0 0 0 0 0 0 0 0 0
0 0 -0 -0 -0 -0 0 0 0 0 -0 0 0 0 0 0 0 0 -0 0 0 0 0 0 0 0 0 0 0 0 0 0 0 0 0 0 0 0 0 0 0 0 0 0
0 -0 0 -0 -0 -0 0 -0 -0 -0 0 0 0 0 0 0 0 -0 0 0 0 0 0 0 -0 -0 -0 -0 0 0 0 0 0 0 0 0 0 0 0 0 0 0 0 0
-0 -0 -0 0 -0 -0 -0 -0 -0 -0 0 0 0 -0 -0 0 0 0 0 0 0 0 -0 0 0 -0 -0 0 0 -0 0 0 0 0 0 0 0 0 0 0 0 0 0 0
-0 -0 -0 0 0 0 -0 -0 -0 -0 0 -0 0 -0 -0 -0 0 0 0 0 0 0 0 0 0 0 0 0 0 -0 -0 0 0 0 0 0 0 0 0 0 0 0 0 0
-0 -0 -0 -0 -0 -0 -0 -0 -0 -0 0 0 0 0 0 -0 -0 0 0 0 0 0 0 0 0 0 0 0 0 0 -0 -0 0 0 0 0 0 0 0 0 0 0 0 0
-0 -0 0 -0 -0 -0 -0 0 -0 0 0 0 -0 0 0 -0 0 -0 0 0 0 0 0 0 0 0 0 0 -0 -0 -0 -0 -0 0 0 0 0 0 0 0 0 0 0 0
0 0 0 0 -0 -0 0 0 0 0 0 0 0 0 0 0 0 0 -0 0 0 0 0 0 0 0 -0 0 0 -0 0 -0 -0 -0 0 0 0 0 -0 0 0 0 0 0
0 0 0 0 0 0 0 0 0 0 -0 -0 0 0 0 0 0 0 0 0 0 0 0 0 0 0 0 0 0 0 -0 -0 -0 -0 -0 0 0 0 0 0 0 0 0 0
0 0 0 0 0 0 0 0 0 0 0 0 0 0 0 0 0 0 0 0 0 0 0 0 0 0 0 -0 -0 0 0 0 -0 -0 -0 -0 -0 -0 0 0 0 0 0 0
0 0 -0 0 0 0 0 0 0 0 0 0 0 0 0 0 0 0 0 0 0 0 0 0 0 0 0 0 0 0 0 0 0 0 -0 -0 0 -0 -0 -0 0 -0 0 0
0 0 -0 0 0 0 0 0 0 0 0 0 0 0 0 0 0 0 0 0 0 0 0 0 0 0 0 0 0 0 0 0 0 0 0 0 -0 0 0 0 -0 0 0 0
0 0 0 0 0 0 0 0 0 0 0 0 0 0 0 0 0 0 0 0 -0 0 0 0 0 0 0 0 0 0 0 0 0 0 -0 0 -0 -0 -0 -0 0 0 0 0
0 0 0 0 0 0 0 0 0 0 0 0 0 0 0 0 0 0 0 0 0 0 0 0 0 0 0 0 0 0 0 0 0 0 0 -0 -0 -0 -0 -0 0 0 0 0
0 0 0 0 0 0 0 0 0 0 0 0 0 0 0 0 0 0 0 0 0 0 0 0 0 0 0 0 0 0 0 0 0 0 0 0 -0 0 -0 0 0 0 0 0
0 0 0 0 0 0 0 0 0 0 0 0 0 0 0 0 0 0 0 0 0 0 0 0 0 0 0 0 0 -0 0 0 0 0 0 0 -0 0 -0 -0 0 0 0 0
0 0 0 0 0 0 0 0 0 0 0 0 0 0 0 0 0 0 0 0 0 0 0 0 0 0 0 0 0 0 0 0 0 0 0 -0 -0 -0 0 0 -0 0 0 0
0 0 0 0 0 0 0 0 0 0 0 0 0 0 0 0 0 0 0 0 0 0 0 0 0 0 0 0 0 0 0 0 0 0 0 0 0 -0 -0 -0 0 -0 0 0
0 0 0 0 0 0 0 0 0 0 0 0 0 0 0 0 0 1 0 0 0 0 -0 0 0 0 0 0 0 0 0 0 0 0 0 0 0 0 -0 -0 0 0 -0 0
0 0 0 0 0 0 0 0 -0 0 0 0 0 0 0 0 1 1 0 0 0 -0 0 0 0 0 0 0 0 0 0 0 0 0 0 0 0 0 0 -0 -0 -0 0 -0
0 0 0 0 0 0 0 0 0 0 0 0 0 0 1 0 0 0 -0 0 0 0 0 0 0 -0 0 0 0 0 0 0 0 0 0 0 0 -0 0 0 -0 -0 -0 -0
0 0 0 0 -0 -0 -0 0 0 0 0 0 0 0 0 0 0 0 0 0 0 0 0 0 0 0 0 0 0 0 0 0 0 0 0 0 -0 -0 0 0 0 -0 -0 0
0 0 0 -0 0 0 0 0 0 0 0 0 0 0 0 0 0 0 0 0 0 0 0 0 0 0 0 0 0 0 -0 0 0 0 0 0 0 -0 0 -0 0 0 -0 -0
0 0 0 0 0 0 0 0 0 0 0 0 0 0 0 0 0 0 0 0 0 0 0 0 0 0 0 0 0 0 0 0 0 0 0 0 -0 0 -0 -0 0 0 -0 -0
Wind_Speed_500mb
50 49 49 51 53 40 9 14 6 22 12 18 4 18 14 6 19 13 10 9 11 13 19 26 31 28 29 30 22 29 20 23 31 38 46 30 32 37 43 28 38 33 36 34
51 50 47 44 43 37 21 17 10 20 19 8 9 7 13 15 20 18 22 16 18 21 20 15 15 22 28 27 21 12 22 24 22 33 35 43 29 46 47 43 43 38 32 37
52 50 44 36 30 26 25 17 4 16 25 26 20 7 13 9 15 19 17 12 18 15 20 16 15 17 15 7 11 21 25 26 33 31 31 29 28 41 39 47 32 37 38 38
52 47 39 29 23 28 25 16 15 12 17 24 20 23 20 21 15 22 16 4 9 13 12 23 24 19 20 27 19 19 16 33 39 45 53 40 41 38 30 44 43 41 38 43
48 39 33 26 24 20 22 19 12 20 18 11 13 10 12 13 18 11 12 11 20 19 8 17 31 28 27 19 22 14 17 19 37 41 44 42 47 43 40 44 58 44 45 40
39 32 27 25 25 29 15 16 10 8 9 14 9 13 16 12 8 14 4 15 15 19 20 24 33 36 38 41 22 26 11 10 16 35 36 41 43 48 39 36 35 26 36 39
32 26 25 25 26 36 22 13 10 8 8 11 13 7 13 9 8 10 15 11 12 18 36 43 41 47 49 49 46 39 21 12 3 15 21 27 33 36 40 42 39 39 42 41
24 20 25 28 27 30 25 14 14 15 15 22 15 11 10 15 16 21 10 13 19 26 33 17 20 12 22 32 35 37 33 24 10 8 20 33 35 28 14 24 38 32 27 31
17 13 21 26 28 33 28 18 11 7 10 18 5 8 7 12 17 4 4 12 14 25 13 8 8 8 14 8 11 19 28 26 16 19 16 19 29 20 23 24 20 17 26 31
13 5 11 22 23 25 26 14 16 13 11 17 20 15 13 10 9 8 11 19 8 15 9 6 6 7 4 8 13 16 14 14 28 22 23 24 24 0 19 18 12 24 25 32
12 1 5 9 13 16 19 8 18 14 12 13 17 12 15 11 3 6 20 6 4 9 11 8 9 7 8 7 14 17 10 11 10 19 25 29 31 9 22 23 38 37 36 37
11 7 8 4 4 11 15 8 20 16 5 13 14 9 10 8 6 6 7 11 10 5 4 5 4 4 6 10 5 17 4 8 8 10 8 38 33 40 44 38 43 55 54 43
10 9 9 6 3 6 8 3 9 17 18 23 13 8 3 4 3 2 4 2 6 2 7 5 1 4 2 6 6 6 7 12 6 17 12 43 49 51 45 40 45 53 58 52
11 10 10 12 11 12 13 7 13 11 18 11 9 13 5 5 4 4 5 5 7 4 9 6 4 4 7 4 7 3 7 22 10 11 21 51 22 48 53 60 72 61 56 47
12 7 4 5 6 10 16 15 13 9 11 10 27 17 19 11 11 8 6 8 12 16 12 6 7 7 7 8 5 4 5 4 5 6 32 17 33 43 45 46 73 44 50 56
12 10 8 8 8 10 8 3 3 12 8 8 7 15 17 17 9 14 16 18 17 7 18 4 8 7 9 2 4 13 16 14 7 2 27 17 34 26 38 36 63 27 21 27
13 11 10 11 13 13 9 6 11 10 16 8 12 5 11 21 10 10 14 20 20 14 14 2 11 4 7 2 3 12 5 11 9 6 14 23 30 35 41 32 42 34 20 15
15 14 14 16 18 19 12 14 12 15 8 11 7 5 11 23 9 9 11 11 14 9 9 6 2 9 10 3 15 8 8 2 6 2 7 16 39 46 42 42 34 38 42 27
15 15 15 16 5 7 13 20 27 15 13 7 5 6 11 20 14 15 12 12 7 8 10 9 10 3 5 14 12 14 11 14 14 12 15 11 20 42 49 42 41 37 33 41
14 7 2 8 10 15 25 8 9 12 16 18 13 24 16 17 11 14 11 16 8 7 9 16 8 7 13 15 5 10 10 13 18 18 19 24 18 21 35 41 42 33 29 24
6 7 6 15 26 7 8 11 17 21 14 18 18 35 20 19 12 8 16 5 7 5 7 12 8 4 9 6 4 7 7 9 8 13 15 20 21 20 28 22 36 44 30 26
13 21 20 13 7 11 14 10 12 7 8 24 27 32 38 8 9 9 4 6 1 7 14 6 2 7 16 10 3 2 3 5 5 7 8 14 16 12 13 19 15 37 35 39
11 7 8 11 12 3 11 9 14 5 15 47 53 42 17 1 9 1 2 7 8 12 6 5 4 10 17 9 5 7 6 4 7 4 6 9 13 14 7 12 16 19 27 32
11 11 8 9 9 7 6 7 11 30 11 26 14 10 9 9 11 5 9 4 11 6 4 5 9 28 14 9 10 13 19 9 9 8 10 9 15 18 12 15 13 19 17 25
11 9 7 4 35 54 38 39 14 18 39 34 18 15 12 9 5 7 9 4 7 6 4 6 3 13 15 13 13 15 14 11 15 11 13 17 11 14 17 15 15 17 21 21
11 11 17 36 24 16 37 25 32 41 33 18 17 7 5 2 4 3 3 6 8 5 8 12 4 7 9 10 10 5 10 11 10 13 14 12 10 7 11 11 15 17 21 23
10 7 12 17 12 8 8 35 41 36 33 12 7 9 13 10 8 8 6 3 7 16 13 14 7 4 5 8 9 11 11 8 8 10 11 10 15 12 7 13 20 17 15 26
Wind_Direction_500mb
350 351 352 350 348 1 8 285 306 353 338 258 277 44 19 341 23 19 343 298 297 305 319 300 296 287 311 22 328 310 279 288 285 269 272 262 247 258 242 246 240 265 250 253
348 349 352 356 355 4 348 300 34 15 331 319 49 88 94 49 9 16 13 334 14 340 315 316 294 304 317 5 356 352 313 263 271 259 272 269 231 234 254 249 250 251 234 246
348 350 355 4 10 15 359 300 335 65 44 22 354 342 58 51 60 62 351 326 321 339 310 264 263 279 283 358 291 338 315 274 275 276 257 341 290 239 251 249 243 243 249 244
351 354 4 18 42 29 12 357 47 353 6 32 39 11 7 41 6 1 8 202 14 359 324 331 299 328 323 301 304 295 253 263 266 273 286 294 285 285 286 257 250 248 244 244
354 4 19 35 59 43 36 358 349 79 52 60 60 60 42 20 357 334 6 347 349 335 312 300 309 300 298 302 293 225 302 283 272 259 271 286 274 264 263 278 242 248 259 285
359 17 37 67 72 60 44 43 28 342 116 27 30 36 17 354 340 299 14 346 341 315 338 314 298 292 281 264 249 267 247 261 281 260 267 282 260 254 245 261 272 272 260 269
4 28 56 67 76 70 45 68 359 54 91 72 48 8 296 319 334 307 301 328 296 312 316 300 287 270 263 257 266 249 211 216 233 273 294 251 261 259 262 251 261 259 265 274
6 44 70 71 88 81 64 35 33 16 41 44 57 16 346 339 286 234 336 13 356 330 312 299 291 262 266 253 242 246 240 205 230 235 264 271 293 246 337 327 242 239 285 308
8 58 79 88 82 78 69 32 50 350 360 43 345 305 45 341 2 17 90 12 7 345 323 285 302 339 359 354 307 248 269 265 212 228 241 266 260 50 4 346 266 285 354 323
357 82 92 92 88 82 88 24 37 348 333 51 19 37 11 348 17 302 342 342 343 10 7 326 342 350 311 339 312 335 304 268 239 238 249 252 269 343 331 259 290 350 347 341
342 312 182 103 87 69 75 2 15 20 353 35 27 23 1 357 49 357 351 295 358 18 19 360 8 337 3 302 304 318 307 314 247 228 244 254 7 186 223 346 334 318 325 324
331 273 239 228 5 28 75 24 348 348 289 328 338 330 346 1 28 3 339 26 15 72 75 40 344 314 319 318 310 349 322 7 309 297 310 329 345 330 318 319 313 303 306 306
331 299 252 248 285 337 9 299 329 349 304 294 272 241 283 339 2 74 40 340 60 3 66 109 197 272 45 320 351 307 295 5 290 326 348 334 320 310 306 308 297 284 281 283
335 324 256 256 267 286 297 260 314 323 310 291 277 235 262 259 225 240 281 248 306 269 173 157 176 233 152 241 289 261 274 307 295 268 300 324 333 329 325 319 302 268 264 263
333 320 293 277 283 294 303 286 269 276 325 301 298 255 244 231 226 245 266 264 274 246 196 177 223 177 203 203 241 241 235 265 315 298 313 296 300 317 327 319 333 247 233 244
326 318 301 305 306 324 346 354 99 230 311 295 281 241 197 212 233 236 240 264 284 249 252 206 219 236 201 235 217 256 206 197 175 282 340 316 325 322 345 339 350 35 150 171
317 306 294 293 294 298 248 240 226 251 303 260 286 213 200 197 224 239 277 266 260 270 246 275 214 234 208 330 232 308 16 202 179 322 7 360 356 350 359 1 4 21 50 101
313 305 299 294 293 292 283 268 260 280 240 255 266 263 163 191 195 216 217 245 226 241 224 299 102 355 18 279 302 29 73 67 93 172 40 48 25 17 16 15 13 13 24 26
311 309 303 296 295 246 244 274 282 242 212 278 260 287 308 180 218 193 201 223 224 221 209 193 122 154 229 230 337 6 50 26 16 66 43 30 33 28 21 21 21 17 8 19
322 333 311 232 219 276 296 328 188 212 203 219 239 232 264 226 220 206 179 201 226 205 214 171 170 215 226 259 3 16 44 46 17 33 29 21 48 27 28 31 22 20 15 7
345 238 266 264 300 276 237 244 213 193 206 213 226 218 235 226 197 226 201 214 199 196 224 203 184 124 204 119 5 47 80 93 50 36 36 33 34 27 27 29 27 27 36 38
259 294 297 273 262 238 245 231 228 202 277 179 243 223 212 265 178 175 231 249 277 257 224 97 106 129 127 98 77 359 171 121 122 97 49 56 27 38 44 40 42 32 40 42
291 266 234 230 250 338 243 324 342 141 283 352 18 17 344 268 342 303 323 250 212 245 61 166 105 143 127 92 30 25 24 359 52 45 50 41 32 24 59 56 56 40 34 41
253 218 280 249 225 44 268 331 45 321 352 357 5 105 81 28 64 243 269 6 246 85 100 42 40 325 70 50 13 4 83 55 16 49 59 42 27 20 93 114 76 66 58 42
263 241 250 356 343 349 349 28 337 351 352 4 6 47 41 50 76 241 291 294 18 71 74 75 168 63 63 27 3 343 356 12 69 23 39 50 48 20 40 118 127 85 78 60
244 249 295 316 303 315 353 343 5 7 14 32 50 58 16 28 262 265 328 339 19 34 25 12 84 76 36 4 344 341 324 340 356 18 20 15 16 342 38 38 134 110 96 82
238 245 357 322 7 12 354 27 20 19 28 36 15 345 11 346 321 13 54 157 266 338 355 9 54 32 3 350 330 328 324 325 320 327 13 9 1 14 330 6 115 119 107 102
Wind_Speed_850mb
50 49 49 51 53 40 9 14 6 22 12 18 4 18 14 6 19 13 10 9 11 13 19 26 31 28 29 30 22 29 20 23 31 38 46 30 32 37 43 28 38 33 36 34
51 50 47 44 43 37 21 17 10 20 19 8 9 7 13 15 20 18 22 16 18 21 20 15 15 22 28 27 21 12 22 24 22 33 35 43 29 46 47 43 43 38 32 37
52 50 44 36 30 26 25 17 4 16 25 26 20 7 13 9 15 19 17 12 18 15 20 16 15 17 15 7 11 21 25 26 33 31 31 29 28 41 39 47 32 37 38 38
52 47 39 29 23 28 25 16 15 12 17 24 20 23 20 21 15 22 16 4 9 13 12 23 24 19 20 27 19 19 16 33 39 45 53 40 41 38 30 44 43 41 38 43
48 39 33 26 24 20 22 19 12 20 18 11 13 10 12 13 18 11 12 11 20 19 8 17 31 28 27 19 22 14 17 19 37 41 44 42 47 43 40 44 58 44 45 40
39 32 27 25 25 29 15 16 10 8 9 14 9 13 16 12 8 14 4 15 15 19 20 24 33 36 38 41 22 26 11 10 16 35 36 41 43 48 39 36 35 26 36 39
32 26 25 25 26 36 22 13 10 8 8 11 13 7 13 9 8 10 15 11 12 18 36 43 41 47 49 49 46 39 21 12 3 15 21 27 33 36 40 42 39 39 42 41
24 20 25 28 27 30 25 14 14 15 15 22 15 11 10 15 16 21 10 13 19 26 33 17 20 12 22 32 35 37 33 24 10 8 20 33 35 28 14 24 38 32 27 31
17 13 21 26 28 33 28 18 11 7 10 18 5 8 7 12 17 4 4 12 14 25 13 8 8 8 14 8 11 19 28 26 16 19 16 19 29 20 23 24 20 17 26 31
13 5 11 22 23 25 26 14 16 13 11 17 20 15 13 10 9 8 11 19 8 15 9 6 6 7 4 8 13 16 14 14 28 22 23 24 24 0 19 18 12 24 25 32
12 1 5 9 13 16 19 8 18 14 12 13 17 12 15 11 3 6 20 6 4 9 11 8 9 7 8 7 14 17 10 11 10 19 25 29 31 9 22 23 38 37 36 37
11 7 8 4 4 11 15 8 20 16 5 13 14 9 10 8 6 6 7 11 10 5 4 5 4 4 6 10 5 17 4 8 8 10 8 38 33 40 44 38 43 55 54 43
10 9 9 6 3 6 8 3 9 17 18 23 13 8 3 4 3 2 4 2 6 2 7 5 1 4 2 6 6 6 7 12 6 17 12 43 49 51 45 40 45 53 58 52
11 10 10 12 11 12 13 7 13 11 18 11 9 13 5 5 4 4 5 5 7 4 9 6 4 4 7 4 7 3 7 22 10 11 21 51 22 48 53 60 72 61 56 47
12 7 4 5 6 10 16 15 13 9 11 10 27 17 19 11 11 8 6 8 12 16 12 6 7 7 7 8 5 4 5 4 5 6 32 17 33 43 45 46 73 44 50 56
12 10 8 8 8 10 8 3 3 12 8 8 7 15 17 17 9 14 16 18 17 7 18 4 8 7 9 2 4 13 16 14 7 2 27 17 34 26 38 36 63 27 21 27
13 11 10 11 13 13 9 6 11 10 16 8 12 5 11 21 10 10 14 20 20 14 14 2 11 4 7 2 3 12 5 11 9 6 14 23 30 35 41 32 42 34 20 15
15 14 14 16 18 19 12 14 12 15 8 11 7 5 11 23 9 9 11 11 14 9 9 6 2 9 10 3 15 8 8 2 6 2 7 16 39 46 42 42 34 38 42 27
15 15 15 16 5 7 13 20 27 15 13 7 5 6 11 20 14 15 12 12 7 8 10 9 10 3 5 14 12 14 11 14 14 12 15 11 20 42 49 42 41 37 33 41
14 7 2 8 10 15 25 8 9 12 16 18 13 24 16 17 11 14 11 16 8 7 9 16 8 7 13 15 5 10 10 13 18 18 19 24 18 21 35 41 42 33 29 24
6 7 6 15 26 7 8 11 17 21 14 18 18 35 20 19 12 8 16 5 7 5 7 12 8 4 9 6 4 7 7 9 8 13 15 20 21 20 28 22 36 44 30 26
13 21 20 13 7 11 14 10 12 7 8 24 27 32 38 8 9 9 4 6 1 7 14 6 2 7 16 10 3 2 3 5 5 7 8 14 16 12 13 19 15 37 35 39
11 7 8 11 12 3 11 9 14 5 15 47 53 42 17 1 9 1 2 7 8 12 6 5 4 10 17 9 5 7 6 4 7 4 6 9 13 14 7 12 16 19 27 32
11 11 8 9 9 7 6 7 11 30 11 26 14 10 9 9 11 5 9 4 11 6 4 5 9 28 14 9 10 13 19 9 9 8 10 9 15 18 12 15 13 19 17 25
11 9 7 4 35 54 38 39 14 18 39 34 18 15 12 9 5 7 9 4 7 6 4 6 3 13 15 13 13 15 14 11 15 11 13 17 11 14 17 15 15 17 21 21
11 11 17 36 24 16 37 25 32 41 33 18 17 7 5 2 4 3 3 6 8 5 8 12 4 7 9 10 10 5 10 11 10 13 14 12 10 7 11 11 15 17 21 23
10 7 12 17 12 8 8 35 41 36 33 12 7 9 13 10 8 8 6 3 7 16 13 14 7 4 5 8 9 11 11 8 8 10 11 10 15 12 7 13 20 17 15 26
Wind_Direction_850mb
350 351 352 350 348 1 8 285 306 353 338 258 277 44 19 341 23 19 343 298 297 305 319 300 296 287 311 22 328 310 279 288 285 269 272 262 247 258 242 246 240 265 250 253
348 349 352 356 355 4 348 300 34 15 331 319 49 88 94 49 9 16 13 334 14 340 315 316 294 304 317 5 356 352 313 263 271 259 272 269 231 234 254 249 250 251 234 246
348 350 355 4 10 15 359 300 335 65 44 22 354 342 58 51 60 62 351 326 321 339 310 264 263 279 283 358 291 338 315 274 275 276 257 341 290 239 251 249 243 243 249 244
351 354 4 18 42 29 12 357 47 353 6 32 39 11 7 41 6 1 8 202 14 359 324 331 299 328 323 301 304 295 253 263 266 273 286 294 285 285 286 257 250 248 244 244
354 4 19 35 59 43 36 358 349 79 52 60 60 60 42 20 357 334 6 347 349 335 312 300 309 300 298 302 293 225 302 283 272 259 271 286 274 264 263 278 242 248 259 285
359 17 37 67 72 60 44 43 28 342 116 27 30 36 17 354 340 299 14 346 341 315 338 314 298 292 281 264 249 267 247 261 281 260 267 282 260 254 245 261 272 272 260 269
4 28 56 67 76 70 45 68 359 54 91 72 48 8 296 319 334 307 301 328 296 312 316 300 287 270 263 257 266 249 211 216 233 273 294 251 261 259 262 251 261 259 265 274
6 44 70 71 88 81 64 35 33 16 41 44 57 16 346 339 286 234 336 13 356 330 312 299 291 262 266 253 242 246 240 205 230 235 264 271 293 246 337 327 242 239 285 308
8 58 79 88 82 78 69 32 50 350 360 43 345 305 45 341 2 17 90 12 7 345 323 285 302 339 359 354 307 248 269 265 212 228 241 266 260 50 4 346 266 285 354 323
357 82 92 92 88 82 88 24 37 348 333 51 19 37 11 348 17 302 342 342 343 10 7 326 342 350 311 339 312 335 304 268 239 238 249 252 269 343 331 259 290 350 347 341
342 312 182 103 87 69 75 2 15 20 353 35 27 23 1 357 49 357 351 295 358 18 19 360 8 337 3 302 304 318 307 314 247 228 244 254 7 186 223 346 334 318 325 324
331 273 239 228 5 28 75 24 348 348 289 328 338 330 346 1 28 3 339 26 15 72 75 40 344 314 319 318 310 349 322 7 309 297 310 329 345 330 318 319 313 303 306 306
331 299 252 248 285 337 9 299 329 349 304 294 272 241 283 339 2 74 40 340 60 3 66 109 197 272 45 320 351 307 295 5 290 326 348 334 320 310 306 308 297 284 281 283
335 324 256 256 267 286 297 260 314 323 310 291 277 235 262 259 225 240 281 248 306 269 173 157 176 233 152 241 289 261 274 307 295 268 300 324 333 329 325 319 302 268 264 263
333 320 293 277 283 294 303 286 269 276 325 301 298 255 244 231 226 245 266 264 274 246 196 177 223 177 203 203 241 241 235 265 315 298 313 296 300 317 327 319 333 247 233 244
326 318 301 305 306 324 346 354 99 230 311 295 281 241 197 212 233 236 240 264 284 249 252 206 219 236 201 235 217 256 206 197 175 282 340 316 325 322 345 339 350 35 150 171
317 306 294 293 294 298 248 240 226 251 303 260 286 213 200 197 224 239 277 266 260 270 246 275 214 234 208 330 232 308 16 202 179 322 7 360 356 350 359 1 4 21 50 101
313 305 299 294 293 292 283 268 260 280 240 255 266 263 163 191 195 216 217 245 226 241 224 299 102 355 18 279 302 29 73 67 93 172 40 48 25 17 16 15 13 13 24 26
311 309 303 296 295 246 244 274 282 242 212 278 260 287 308 180 218 193 201 223 224 221 209 193 122 154 229 230 337 6 50 26 16 66 43 30 33 28 21 21 21 17 8 19
322 333 311 232 219 276 296 328 188 212 203 219 239 232 264 226 220 206 179 201 226 205 214 171 170 215 226 259 3 16 44 46 17 33 29 21 48 27 28 31 22 20 15 7
345 238 266 264 300 276 237 244 213 193 206 213 226 218 235 226 197 226 201 214 199 196 224 203 184 124 204 119 5 47 80 93 50 36 36 33 34 27 27 29 27 27 36 38
259 294 297 273 262 238 245 231 228 202 277 179 243 223 212 265 178 175 231 249 277 257 224 97 106 129 127 98 77 359 171 121 122 97 49 56 27 38 44 40 42 32 40 42
291 266 234 230 250 338 243 324 342 141 283 352 18 17 344 268 342 303 323 250 212 245 61 166 105 143 127 92 30 25 24 359 52 45 50 41 32 24 59 56 56 40 34 41
253 218 280 249 225 44 268 331 45 321 352 357 5 105 81 28 64 243 269 6 246 85 100 42 40 325 70 50 13 4 83 55 16 49 59 42 27 20 93 114 76 66 58 42
263 241 250 356 343 349 349 28 337 351 352 4 6 47 41 50 76 241 291 294 18 71 74 75 168 63 63 27 3 343 356 12 69 23 39 50 48 20 40 118 127 85 78 60
244 249 295 316 303 315 353 343 5 7 14 32 50 58 16 28 262 265 328 339 19 34 25 12 84 76 36 4 344 341 324 340 356 18 20 15 16 342 38 38 134 110 96 82
238 245 357 322 7 12 354 27 20 19 28 36 15 345 11 346 321 13 54 157 266 338 355 9 54 32 3 350 330 328 324 325 320 327 13 9 1 14 330 6 115 119 107 102